Location: Seasalter
(51.3333°N, 1.0167°E)
Time: 12:19:55
(UTC+00:00)

ARIANE 5 R/B - Pass Details

Date: 26 September 2023
Orbit: 748 x 794 km, 98.8° (Epoch: 28 November)

Event Time Altitude Azimuth Distance (km) Brightness Sun altitude
Rises 04:21:24 0° 18° (NNE) 3,252 6.3 -14.2°
Reaches altitude 10° 04:23:47 10° 23° (NNE) 2,314 5.5 -13.8°
Maximum altitude 04:28:46 54° 101° (E) 924 3.3 -13.0°
Drops below altitude 10° 04:33:40 10° 178° (S) 2,272 4.8 -12.3°
Sets 04:35:59 0° 183° (S) 3,188 5.5 -12.0°
